Tracking 20232 objects as of 21-Jan-2020
HD Live streaming from Space Station
objects crossing your sky now

QUANTUTONG 1

Track QUANTUTONG 1 now!
10-day predictions
QUANTUTONG 1 is classified as:


NORAD ID: 43158
Int'l Code: 2018-008D
Perigee: 533.2 km
Apogee: 550.4 km
Inclination: 97.5 °
Period: 95.3 minutes
Semi major axis: 6912 km
RCS: Unknown
Launch date: January 19, 2018
Source: People's Republic of China (PRC)
Launch site: Jiuquan Satellite Launch Center, China (JSC)

Uplink (MHz): 436.100/2415.000/5667.000
Downlink (MHz): 436.100/2415.000/5845.000
Beacon (MHz):
Mode: 9k6 GMSK/5Mbps OFDM
Call sign:
Status: Inactive

aabbcc
Your satellite tracking list
Your tracking list is empty




NASA's NSSDC Master Catalog

Two Line Element Set (TLE):
1 43158U 18008D   20021.34142067  .00000528  00000-0  35850-4 0  9990
2 43158  97.4653  93.1959 0012433 298.6747 125.5638 15.10500402110469
Source of the keplerian elements: AMSAT